TimeEDT,TemperatureF,Dew PointF,Humidity,Sea Level PressureIn,VisibilityMPH,Wind Direction,Wind SpeedMPH,Gust SpeedMPH,PrecipitationIn,Events,Conditions,WindDirDegrees,DateUTC
12:15 AM,60.8,56.7,86,29.85,10.0,NW,5.8,-,N/A,,Clear,310,2013-09-22 04:15:00
12:35 AM,60.4,56.3,86,29.85,10.0,WNW,5.8,-,N/A,,Clear,300,2013-09-22 04:35:00
12:55 AM,60.1,55.9,86,29.85,10.0,NW,8.1,-,N/A,,Scattered Clouds,310,2013-09-22 04:55:00
1:15 AM,59.9,55.4,85,29.86,10.0,WNW,5.8,-,N/A,,Scattered Clouds,300,2013-09-22 05:15:00
1:35 AM,59.0,54.7,86,29.86,10.0,WNW,4.6,-,N/A,,Clear,290,2013-09-22 05:35:00
1:55 AM,56.7,54.0,91,29.86,10.0,Calm,Calm,-,N/A,,Clear,0,2013-09-22 05:55:00
2:15 AM,54.5,53.8,97,29.86,10.0,Calm,Calm,-,N/A,,Clear,0,2013-09-22 06:15:00
2:35 AM,54.5,53.8,97,29.86,10.0,Calm,Calm,-,N/A,,Clear,0,2013-09-22 06:35:00
2:55 AM,53.6,53.1,98,29.86,10.0,Calm,Calm,-,N/A,,Clear,0,2013-09-22 06:55:00
3:15 AM,52.0,51.3,97,29.87,10.0,Calm,Calm,-,N/A,,Clear,0,2013-09-22 07:15:00
3:35 AM,52.0,51.4,98,29.87,10.0,Calm,Calm,-,N/A,,Clear,0,2013-09-22 07:35:00
3:55 AM,50.9,50.2,97,29.87,4.0,Calm,Calm,-,N/A,,Clear,0,2013-09-22 07:55:00
4:15 AM,50.4,49.6,97,29.87,0.5,Calm,Calm,-,N/A,Fog,Fog,0,2013-09-22 08:15:00
4:35 AM,49.8,49.3,98,29.87,0.5,Calm,Calm,-,N/A,Fog,Fog,0,2013-09-22 08:35:00
4:55 AM,49.6,49.1,98,29.87,0.5,Calm,Calm,-,N/A,Fog,Fog,0,2013-09-22 08:55:00
5:15 AM,50.0,49.3,97,29.88,0.2,Calm,Calm,-,N/A,Fog,Fog,0,2013-09-22 09:15:00
5:35 AM,50.7,50.0,97,29.88,0.5,Calm,Calm,-,N/A,Fog,Fog,0,2013-09-22 09:35:00
5:55 AM,50.9,50.2,97,29.89,0.2,Calm,Calm,-,N/A,Fog,Fog,0,2013-09-22 09:55:00
6:15 AM,50.4,49.6,97,29.89,0.2,Calm,Calm,-,N/A,Fog,Fog,0,2013-09-22 10:15:00
6:35 AM,50.2,49.3,97,29.89,0.2,Calm,Calm,-,N/A,Fog,Fog,0,2013-09-22 10:35:00
6:55 AM,50.2,49.3,97,29.90,0.5,Calm,Calm,-,N/A,Fog,Fog,0,2013-09-22 10:55:00
7:15 AM,50.5,49.6,97,29.90,0.5,Calm,Calm,-,N/A,Fog,Fog,0,2013-09-22 11:15:00
7:35 AM,50.9,50.0,97,29.91,1.8,Calm,Calm,-,N/A,,Overcast,0,2013-09-22 11:35:00
7:55 AM,50.9,50.0,97,29.91,5.0,Calm,Calm,-,N/A,,Overcast,0,2013-09-22 11:55:00
8:15 AM,50.9,50.0,97,29.91,5.0,Calm,Calm,-,N/A,,Overcast,0,2013-09-22 12:15:00
8:35 AM,51.1,50.2,97,29.92,10.0,Calm,Calm,-,N/A,,Overcast,0,2013-09-22 12:35:00
8:55 AM,51.3,50.4,97,29.93,10.0,Calm,Calm,-,N/A,,Overcast,0,2013-09-22 12:55:00
9:15 AM,51.8,50.9,97,29.94,10.0,Calm,Calm,-,N/A,,Overcast,0,2013-09-22 13:15:00
9:35 AM,52.2,51.3,97,29.94,10.0,Calm,Calm,-,N/A,,Overcast,0,2013-09-22 13:35:00
9:55 AM,52.7,51.8,97,29.94,10.0,Calm,Calm,-,N/A,,Overcast,0,2013-09-22 13:55:00
10:15 AM,52.9,52.0,97,29.94,10.0,Calm,Calm,-,N/A,,Overcast,0,2013-09-22 14:15:00
10:35 AM,52.9,52.0,97,29.95,10.0,Calm,Calm,-,N/A,,Overcast,0,2013-09-22 14:35:00
10:55 AM,53.6,52.7,97,29.95,10.0,Calm,Calm,-,N/A,,Overcast,0,2013-09-22 14:55:00
11:15 AM,55.6,54.9,97,29.94,10.0,Calm,Calm,-,N/A,,Scattered Clouds,0,2013-09-22 15:15:00
11:35 AM,58.6,51.8,78,29.94,10.0,Calm,Calm,-,N/A,,Clear,0,2013-09-22 15:35:00
11:55 AM,60.3,52.0,74,29.94,10.0,Calm,Calm,-,N/A,,Clear,0,2013-09-22 15:55:00
12:15 PM,62.1,51.3,68,29.94,10.0,Calm,Calm,-,N/A,,Clear,0,2013-09-22 16:15:00
12:35 PM,64.2,52.0,64,29.93,10.0,Calm,Calm,-,N/A,,Clear,0,2013-09-22 16:35:00
12:55 PM,65.3,51.8,62,29.92,10.0,Calm,Calm,-,N/A,,Clear,0,2013-09-22 16:55:00
1:15 PM,66.7,51.6,58,29.92,10.0,Calm,Calm,-,N/A,,Clear,0,2013-09-22 17:15:00
1:35 PM,68.7,49.8,51,29.91,10.0,Calm,Calm,-,N/A,,Clear,0,2013-09-22 17:35:00
1:55 PM,69.8,51.4,52,29.90,10.0,Calm,Calm,-,N/A,,Clear,0,2013-09-22 17:55:00
2:15 PM,70.9,45.5,40,29.90,10.0,Calm,Calm,-,N/A,,Clear,0,2013-09-22 18:15:00
2:35 PM,71.4,49.1,45,29.89,10.0,Calm,Calm,-,N/A,,Clear,0,2013-09-22 18:35:00
2:55 PM,72.1,46.2,40,29.89,10.0,WNW,3.5,-,N/A,,Clear,300,2013-09-22 18:55:00
3:15 PM,72.7,48.0,42,29.89,10.0,Calm,Calm,-,N/A,,Clear,0,2013-09-22 19:15:00
3:35 PM,73.6,42.6,33,29.89,10.0,West,3.5,-,N/A,,Clear,280,2013-09-22 19:35:00
3:55 PM,73.9,45.5,36,29.89,10.0,NW,3.5,-,N/A,,Clear,320,2013-09-22 19:55:00
4:15 PM,74.3,44.6,35,29.88,10.0,NW,3.5,-,N/A,,Clear,310,2013-09-22 20:15:00
4:35 PM,74.3,47.5,39,29.88,10.0,NW,4.6,-,N/A,,Clear,320,2013-09-22 20:35:00
4:55 PM,74.1,46.9,38,29.88,10.0,Calm,Calm,-,N/A,,Clear,0,2013-09-22 20:55:00
5:15 PM,73.8,47.8,40,29.88,10.0,Calm,Calm,-,N/A,,Clear,0,2013-09-22 21:15:00
5:35 PM,73.6,48.0,40,29.89,10.0,Calm,Calm,-,N/A,,Clear,0,2013-09-22 21:35:00
5:55 PM,73.4,48.7,42,29.89,10.0,Calm,Calm,-,N/A,,Clear,0,2013-09-22 21:55:00
6:15 PM,72.7,51.8,48,29.89,10.0,Calm,Calm,-,N/A,,Clear,0,2013-09-22 22:15:00
6:35 PM,69.6,56.3,63,29.89,10.0,SW,3.5,-,N/A,,Clear,230,2013-09-22 22:35:00
6:55 PM,67.6,56.8,68,29.89,10.0,Calm,Calm,-,N/A,,Clear,0,2013-09-22 22:55:00
7:15 PM,64.8,56.8,75,29.90,10.0,Calm,Calm,-,N/A,,Clear,0,2013-09-22 23:15:00
7:35 PM,61.2,56.5,85,29.90,10.0,Calm,Calm,-,N/A,,Clear,0,2013-09-22 23:35:00
7:55 PM,59.9,56.5,88,29.91,10.0,Calm,Calm,-,N/A,,Clear,0,2013-09-22 23:55:00
8:15 PM,59.2,56.5,91,29.92,10.0,Calm,Calm,-,N/A,,Clear,0,2013-09-23 00:15:00
8:35 PM,58.8,56.1,91,29.92,10.0,Calm,Calm,-,N/A,,Clear,0,2013-09-23 00:35:00
8:55 PM,57.4,55.8,94,29.94,10.0,Calm,Calm,-,N/A,,Clear,0,2013-09-23 00:55:00
9:15 PM,56.3,55.0,96,29.95,7.0,Calm,Calm,-,N/A,,Clear,0,2013-09-23 01:15:00
9:35 PM,55.4,54.5,97,29.96,7.0,Calm,Calm,-,N/A,,Clear,0,2013-09-23 01:35:00
9:55 PM,55.0,54.5,98,29.96,7.0,Calm,Calm,-,N/A,,Clear,0,2013-09-23 01:55:00
10:15 PM,54.3,53.8,98,29.97,5.0,Calm,Calm,-,N/A,,Clear,0,2013-09-23 02:15:00
10:35 PM,53.8,53.1,97,29.97,3.0,Calm,Calm,-,N/A,,Clear,0,2013-09-23 02:35:00
10:55 PM,52.9,52.2,97,29.97,5.0,Calm,Calm,-,N/A,,Clear,0,2013-09-23 02:55:00
11:15 PM,52.9,52.2,97,29.98,5.0,Calm,Calm,-,N/A,,Clear,0,2013-09-23 03:15:00
11:35 PM,53.2,52.7,98,29.98,7.0,Calm,Calm,-,N/A,,Mostly Cloudy,0,2013-09-23 03:35:00
11:55 PM,53.2,52.7,98,29.99,7.0,Calm,Calm,-,N/A,,Mostly Cloudy,0,2013-09-23 03:55:00